FW2557 Weather Reports


time (UTC)temp
F
wind
direction
speed
knots
gust
knots
rain 1hr
in
rain 24hr
in
rain mn
in
humidity
%
barometer
mb
20260906051514 76 285 4.3 13.0 0.00 0.00 0.00 62 1017.6
20260906050010 64 242 1.7 3.5 0.00 0.00 0.00 85 1017.5
20260906044505 62 78 1.7 6.1 0.00 0.00 0.00 87 1017.4
20260906043002 60 34 4.3 13.0 0.00 0.00 0.00 90 1017.2
20260906041601 60 58 0.9 7.8 0.00 0.00 0.00 91 1017.1
20260906040100 58 130 1.7 6.1 0.00 0.00 0.00 94 1017.0
20260906034557 57 181 1.7 4.3 0.00 0.00 0.00 94 1017.0
20260906033100 57 178 2.6 7.8 0.00 0.00 0.00 94 1016.8
20260906031558 57 178 0.0 4.3 0.00 0.00 0.00 94 1017.0
20260906030055 57 265 0.9 2.6 0.00 0.00 0.00 93 1017.0
20260906024552 57 331 1.7 7.0 0.00 0.00 0.00 94 1017.1
20260906023050 57 69 0.9 3.5 0.00 0.00 0.00 94 1017.0
20260906021556 56 277 0.9 3.5 0.00 0.00 0.00 94 1017.0
20260906020046 57 275 0.0 0.0 0.00 0.00 0.00 94 1016.9
20260906014548 57 306 0.0 1.7 0.00 0.00 0.00 93 1016.9
20260906013043 57 293 0.9 1.7 0.00 0.00 0.00 93 1016.9
20260906011544 57 309 0.0 0.0 0.00 0.00 0.00 93 1016.9
20260906010040 58 309 0.0 0.0 0.00 0.00 0.00 93 1016.8
20260906004541 58 317 0.0 1.7 0.00 0.00 0.00 93 1016.8
20260906003037 58 271 1.7 2.6 0.00 0.00 0.00 93 1016.9
20260906001535 58 271 0.0 0.0 0.00 0.00 0.00 93 1016.8
20260906000034 58 271 0.0 0.0 0.00 0.00 0.00 93 1016.9
20260905234532 59 264 0.0 0.0 0.00 0.00 0.00 93 1016.9
20260905233030 59 199 0.0 0.0 0.00 0.00 0.00 93 1016.8
20260905231528 59 184 0.0 0.0 0.00 0.00 0.00 93 1016.9
20260905230026 59 265 0.0 0.0 0.00 0.00 0.00 93 1017.0
20260905224524 60 265 0.0 1.7 0.00 0.00 0.00 93 1016.9
20260905223023 60 305 0.0 2.6 0.00 0.00 0.00 92 1017.0
20260905221531 61 257 0.0 1.7 0.00 0.00 0.00 92 1016.9
20260905220017 61 273 0.0 1.7 0.00 0.00 0.00 92 1017.1
20260905214517 61 273 0.0 1.7 0.00 0.00 0.00 92 1017.0
20260905213024 62 273 0.0 0.0 0.00 0.00 0.00 92 1017.0
20260905211520 62 273 0.0 0.9 0.00 0.00 0.00 92 1017.1
20260905210024 63 261 0.0 0.0 0.00 0.00 0.00 91 1017.1
20260905204515 63 261 0.0 0.0 0.00 0.00 0.00 91 1017.0
20260905203014 63 261 0.0 0.0 0.00 0.00 0.00 91 1017.1
20260905201521 64 261 0.0 0.0 0.00 0.00 0.00 91 1017.0
20260905200013 64 261 0.0 0.0 0.00 0.00 0.00 90 1017.0
20260905194513 65 261 0.0 0.0 0.00 0.00 0.00 90 1017.0
20260905193013 66 261 0.0 0.0 0.00 0.00 0.00 89 1016.9
20260905191511 66 261 0.0 0.0 0.00 0.00 0.00 88 1016.8
20260905190011 67 232 0.0 0.0 0.00 0.00 0.00 87 1016.8
20260905184511 68 232 0.0 0.0 0.00 0.00 0.00 86 1016.8
20260905183011 69 313 0.0 0.9 0.00 0.00 0.00 83 1016.7
20260905181511 70 282 0.0 0.0 0.00 0.00 0.00 82 1016.5
20260905180011 72 5 0.0 2.6 0.00 0.00 0.00 79 1016.4
20260905174513 73 5 0.9 2.6 0.00 0.00 0.00 78 1016.3
20260905173018 73 294 0.0 1.7 0.00 0.00 0.00 76 1016.1
20260905171510 74 295 0.0 1.7 0.00 0.00 0.00 76 1016.0
20260905170008 76 295 0.9 1.7 0.00 0.00 0.00 74 1015.9
20260905164507 78 69 0.0 1.7 0.00 0.00 0.00 71 1015.7
20260905163005 80 305 0.0 1.7 0.00 0.00 0.00 66 1015.5
20260905161505 82 196 0.0 1.7 0.00 0.00 0.00 63 1015.5
20260905160003 85 173 0.9 2.6 0.00 0.00 0.00 55 1015.4
20260905154502 87 196 0.9 4.3 0.00 0.00 0.00 52 1015.3
20260905153100 89 194 1.7 4.3 0.00 0.00 0.00 44 1015.3
20260905151559 90 186 1.7 4.3 0.00 0.00 0.00 43 1015.4
20260905150058 91 182 2.6 5.2 0.00 0.00 0.00 42 1015.4
20260905144556 92 154 2.6 5.2 0.00 0.00 0.00 40 1015.3
20260905143054 92 182 3.5 6.1 0.00 0.00 0.00 38 1015.3
20260905141608 93 167 3.5 6.1 0.00 0.00 0.00 38 1015.4
20260905140054 93 94 1.7 5.2 0.00 0.00 0.00 38 1015.4
20260905134552 93 153 0.9 2.6 0.00 0.00 0.00 38 1015.5
20260905133047 93 167 1.7 7.8 0.00 0.00 0.00 37 1015.6
20260905131557 93 115 1.7 5.2 0.00 0.00 0.00 34 1015.7
20260905130044 92 112 0.9 6.1 0.00 0.00 0.00 35 1015.8
20260905124549 93 42 0.9 5.2 0.00 0.00 0.00 36 1015.8
20260905123050 94 300 0.9 3.5 0.00 0.00 0.00 34 1016.1
20260905121538 92 71 2.6 7.0 0.00 0.00 0.00 34 1016.3
20260905120036 92 141 0.9 3.5 0.00 0.00 0.00 35 1016.6
20260905114540 93 325 1.7 4.3 0.00 0.00 0.00 34 1016.7
20260905113029 91 350 0.9 7.8 0.00 0.00 0.00 35 1016.9
20260905111531 91 243 0.9 3.5 0.00 0.00 0.00 35 1016.9
20260905110026 90 54 1.7 6.1 0.00 0.00 0.00 35 1017.0
20260905104523 89 313 1.7 4.3 0.00 0.00 0.00 37 1017.1
20260905103029 89 9 2.6 5.2 0.00 0.00 0.00 38 1017.3
20260905101526 89 309 2.6 7.0 0.00 0.00 0.00 38 1017.5
20260905100016 87 303 1.7 5.2 0.00 0.00 0.00 39 1017.7
20260905094514 87 22 0.9 2.6 0.00 0.00 0.00 42 1017.9
20260905093011 87 214 1.7 2.6 0.00 0.00 0.00 41 1018.2
20260905091509 85 138 1.7 4.3 0.00 0.00 0.00 44 1018.3
20260905090105 85 5 1.7 4.3 0.00 0.00 0.00 43 1018.5
20260905084503 84 192 0.0 3.5 0.00 0.00 0.00 45 1018.6
20260905083057 83 196 0.0 3.5 0.00 0.00 0.00 45 1018.7
20260905081557 82 84 0.9 3.5 0.00 0.00 0.00 48 1018.8
20260905080050 81 103 0.0 2.6 0.00 0.00 0.00 49 1018.9
20260905074549 80 104 0.9 3.5 0.00 0.00 0.00 52 1018.9
20260905073043 78 107 0.0 1.7 0.00 0.00 0.00 55 1018.9
20260905071540 77 190 0.0 0.9 0.00 0.00 0.00 54 1019.0
20260905070037 76 200 0.0 1.7 0.00 0.00 0.00 58 1019.0
20260905064538 74 159 0.0 0.9 0.00 0.00 0.00 63 1019.0
20260905063032 73 51 0.9 1.7 0.00 0.00 0.00 63 1018.9
20260905061529 72 312 0.0 2.6 0.00 0.00 0.00 67 1019.0
20260905060031 68 261 0.0 0.9 0.00 0.00 0.00 76 1019.2
20260905054523 66 207 0.0 0.9 0.00 0.00 0.00 82 1019.3
20260905053021 64 103 0.0 1.7 0.00 0.00 0.00 85 1019.2